COSMOS 2531

Satellite information

Favourite Embed

Satellite Type and Status

PAYLOADIN ORBIT

Key statistics

Satellite COSMOS 2531 at a glance.

Uptime

2529

Days in orbit

Revolutions

≈ 12.4

Per day

Orbit

LEO

Low Earth Orbit

Inclination

82.5

Latest

Satellite identification and parameters

Extended collection of information and parameters for COSMOS 2531.

Object identification

Identified? True

Debris? False

Object name: COSMOS 2531

International designator: 2018-097B

Object number (NORAD): 43752

Object ID (CCSDS): 43752

Country: COMMONWEALTH OF INDEPENDENT STATES (CIS)

Current information (Y/N): Y

RCS size: LARGE

Orbital parameters

Period: 115.861 minutes

Inclination: 82.5233 deg

SMA: 7872.611 km

Apoapsis: 1507.664 km

Periapsis: 1481.288 km

RAAN: 4.5421 deg

Eccentricy: 0.00167516

Argument of periapsis: 186.7164 deg

Mean anomaly: 173.3693 deg

Mean motion: 12.42866693 rev/day

Mean motion (dot): 0.00000029 rev/day2

B* drag term: 0.00013891722 1/REarth

Two-line elements (TLE)

Creation date: Nov. 1, 2025, 7:40 p.m.

Reference frame: TEME

Reference center: EARTH

Epoch: Nov. 1, 2025, 2:17 p.m. UTC

TLE line 0: 0 COSMOS 2531

TLE line 1: 1 43752U 18097B 25305.59556740 .00000029 00000-0 13892-3 0 9999

TLE line 2: 2 43752 82.5233 4.5421 0016752 186.7164 173.3693 12.42866693314036

Live tracking on map

Real-time ground track for satellite COSMOS 2531.

In-orbit conjunctions

There are no conjunctions computed for COSMOS 2531, at the moment. Check back to stay up to date, as we update our databases every day.

Go to all conjunctions

Associated space launch

Rodnik is a series of military communications satellites.

COSMOS 2531 was lifted into orbit during the mission ‘Rokot / Briz-KM | 3 x Rodnik (Kosmos 2530, 2531, 2532)’, on board a Rokot/Briz-KM space rocket.

The launch took place on Nov. 30, 2018, 2:27 a.m. from 133/3 (133L).

For more information about the launch, click the button.

Launch to space Rokot / Briz-KM | 3 x Rodnik (Kosmos 2530, 2531, 2532)
Rokot / Briz-KM | 3 x Rodnik (Kosmos 2530, 2531, 2532)

Agency: N/A

Status: Launch Successful

Launch date: Nov. 30, 2018, 2:27 a.m. UTC

Rocket: Rokot/Briz-KM

Launch pad: 133/3 (133L)

Location: Plesetsk Cosmodrome, Russian Federation

...

Latest news about this satellite

There are no fresh news available about this satellite. Check back as we update our databases every day.


Newsletter sign-up

Weekly statistics, charts and insights to help you stay on top of the space industry.